Yuma MCAS, AZ

6:06 PM MST on July 27, 2017 (GMT -0700)
Yuma Marine Corps Air Station

Weather History for KNYL - June, 2013

Change the Weather History Date:

Friday, June 28, 2013

  Actual Average Record
Temperature  
Mean Temperature 100 °F 92 °F  
Max Temperature 118 °F 106 °F 118 °F (2013)
Min Temperature 82 °F 79 °F 61 °F (1941)
Degree Days  
Heating Degree Days 0 0  
Month to date heating degree days 0 0  
Since 1 June heating degree days 0 0  
Since 1 July heating degree days 705 686  
Cooling Degree Days 35 27  
Month to date cooling degree days 736 667  
Year to date cooling degree days 1797 1579  
Since 1 June cooling degree days 736 667  
Growing Degree Days 50 (Base 50)    
Moisture  
Dew Point 46 °F    
Average Humidity 24    
Maximum Humidity 43    
Minimum Humidity 5    
Precipitation  
Precipitation 0.00 in 0.00 in 0.08 in (1986)
Month to date precipitation 0.00 0.01  
Year to date precipitation 1.11 1.33  
Sea Level Pressure  
Sea Level Pressure 29.75 in    
Wind  
Wind Speed 6 mph (WSW)    
Max Wind Speed 15 mph    
Max Gust Speed 20 mph    
Visibility 10 miles    
Events      
T = Trace of Precipitation, MM = Missing Value Source: NWS Daily Summary

Daily Weather History Graph

Daily Weather History Graph

Search for Another Location

Airport or City:

Trip Planner

Search our weather history database for the weather conditions in past years. The results will help you decide how hot, cold, wet, or windy it might be!

Date:

Astronomy

Jun. 28, 2013 Rise Set
Actual Time 5:33 AM MST 7:50 PM MST
Civil Twilight 5:04 AM MST 8:18 PM MST
Nautical Twilight 4:29 AM MST 8:53 PM MST
Astronomical Twilight 3:51 AM MST 9:31 PM MST
Moon 11:44 PM MST 11:24 AM MST
Length of Visible Light 15h 13m
Length of Day
14h 16m
Waning Gibbous, 65% of the Moon is Illuminated
Jun 28
Waning Gibbous
Jun 29
Last Quarter
Jul 8
New
Jul 15
First Quarter
Jul 22
Full

Hourly Weather History & Observations

Time (MST) Temp. Heat Index Dew Point Humidity Pressure Visibility Wind Dir Wind Speed Gust Speed Precip Events Conditions
12:57 AM 89.1 °F 87.3 °F 55.9 °F 32% 29.83 in 10.0 mi Calm Calm - N/A   Clear
1:57 AM 88.0 °F 86.5 °F 55.9 °F 34% 29.81 in 10.0 mi Calm Calm - N/A   Clear
2:57 AM 89.1 °F 86.7 °F 53.1 °F 29% 29.80 in 10.0 mi South 5.8 mph - N/A   Clear
3:57 AM 84.9 °F 83.7 °F 55.9 °F 37% 29.80 in 10.0 mi South 3.5 mph - N/A   Clear
4:57 AM 82.9 °F 82.4 °F 57.0 °F 41% 29.80 in 10.0 mi South 3.5 mph - N/A   Scattered Clouds
5:57 AM 84.0 °F 82.6 °F 54.0 °F 35% 29.81 in 10.0 mi Calm Calm - N/A   Mostly Cloudy
6:57 AM 86.0 °F 84.2 °F 54.0 °F 33% 29.82 in 10.0 mi Calm Calm - N/A   Mostly Cloudy
7:57 AM 88.0 °F 85.9 °F 54.0 °F 31% 29.83 in 10.0 mi WSW 4.6 mph - N/A   Mostly Cloudy
8:57 AM 91.9 °F 90.8 °F 57.9 °F 32% 29.84 in 10.0 mi West 5.8 mph - N/A   Scattered Clouds
9:57 AM 98.1 °F 96.8 °F 57.0 °F 25% 29.83 in 10.0 mi WNW 5.8 mph - N/A   Scattered Clouds
10:57 AM 106.0 °F - 48.0 °F 14% 29.81 in 10.0 mi WNW 9.2 mph - N/A   Mostly Cloudy
11:57 AM 109.9 °F - 39.9 °F 9% 29.79 in 10.0 mi WNW 6.9 mph - N/A   Mostly Cloudy
12:57 PM 111.9 °F - 37.0 °F 8% 29.77 in 10.0 mi West 8.1 mph - N/A   Mostly Cloudy
1:57 PM 115.0 °F - 33.1 °F 6% 29.74 in 10.0 mi WSW 5.8 mph - N/A   Mostly Cloudy
2:57 PM 116.1 °F - 35.1 °F 6% 29.71 in 10.0 mi West 8.1 mph 16.1 mph N/A   Mostly Cloudy
3:57 PM 117.0 °F - 37.0 °F 7% 29.68 in 10.0 mi WSW 9.2 mph - N/A   Mostly Cloudy
4:57 PM 117.0 °F - 34.0 °F 6% 29.65 in 10.0 mi WNW 10.4 mph - N/A   Scattered Clouds
5:57 PM 117.0 °F - 30.9 °F 5% 29.64 in 10.0 mi WNW 12.7 mph - N/A   Scattered Clouds
6:57 PM 111.9 °F - 37.0 °F 8% 29.64 in 10.0 mi West 9.2 mph - N/A   Scattered Clouds
7:57 PM 106.0 °F - 46.0 °F 13% 29.65 in 10.0 mi WSW 5.8 mph - N/A   Scattered Clouds
8:57 PM 104.0 °F - 46.0 °F 14% 29.67 in 10.0 mi West 9.2 mph - N/A   Mostly Cloudy
9:57 PM 100.0 °F - 43.0 °F 14% 29.68 in 10.0 mi West 5.8 mph - N/A   Scattered Clouds
10:57 PM 96.1 °F - 45.0 °F 17% 29.69 in 10.0 mi WSW 6.9 mph - N/A   Partly Cloudy
11:57 PM 96.1 °F - 45.0 °F 17% 29.68 in 10.0 mi South 4.6 mph - N/A   Scattered Clouds